TimeMST,TemperatureF,Dew PointF,Humidity,Sea Level PressureIn,VisibilityMPH,Wind Direction,Wind SpeedMPH,Gust SpeedMPH,PrecipitationIn,Events,Conditions,WindDirDegrees,DateUTC
12:53 AM,21.0,6.1,53,30.11,10.0,SW,4.6,-,N/A,,Partly Cloudy,220,2012-03-03 07:53:00
1:53 AM,21.0,7.0,55,30.12,10.0,Calm,Calm,-,N/A,,Clear,0,2012-03-03 08:53:00
2:53 AM,19.9,6.1,55,30.11,10.0,Calm,Calm,-,N/A,,Clear,0,2012-03-03 09:53:00
3:53 AM,19.9,3.9,50,30.10,10.0,SSW,5.8,-,N/A,,Mostly Cloudy,210,2012-03-03 10:53:00
4:53 AM,19.0,6.1,57,30.14,10.0,NW,3.5,-,N/A,,Scattered Clouds,320,2012-03-03 11:53:00
5:53 AM,21.9,5.0,48,30.14,10.0,SSW,3.5,-,N/A,,Clear,200,2012-03-03 12:53:00
6:53 AM,21.9,5.0,48,30.17,10.0,Calm,Calm,-,N/A,,Mostly Cloudy,0,2012-03-03 13:53:00
7:53 AM,19.9,10.9,68,30.18,10.0,Calm,Calm,-,N/A,,Partly Cloudy,0,2012-03-03 14:53:00
8:53 AM,32.0,10.9,42,30.12,10.0,NW,10.4,-,N/A,,Clear,310,2012-03-03 15:53:00
9:53 AM,37.0,10.0,33,30.10,10.0,Calm,Calm,-,N/A,,Clear,0,2012-03-03 16:53:00
10:53 AM,39.0,12.9,34,30.11,10.0,SSE,16.1,-,N/A,,Clear,150,2012-03-03 17:53:00
11:53 AM,42.1,14.0,32,30.07,10.0,SE,11.5,-,N/A,,Clear,130,2012-03-03 18:53:00
12:53 PM,44.1,15.1,31,30.02,10.0,Variable,4.6,-,N/A,,Clear,0,2012-03-03 19:53:00
1:53 PM,46.9,17.1,30,29.99,10.0,NW,4.6,-,N/A,,Clear,320,2012-03-03 20:53:00
2:53 PM,45.0,21.0,39,30.00,10.0,NNW,13.8,23.0,N/A,,Clear,330,2012-03-03 21:53:00
3:53 PM,44.1,21.0,40,30.01,10.0,NNW,12.7,-,N/A,,Clear,330,2012-03-03 22:53:00
4:53 PM,43.0,23.0,45,30.02,10.0,South,3.5,-,N/A,,Clear,180,2012-03-03 23:53:00
5:53 PM,39.9,24.1,53,30.02,10.0,SW,3.5,-,N/A,,Clear,220,2012-03-04 00:53:00
6:53 PM,37.9,23.0,55,30.05,10.0,West,10.4,-,N/A,,Clear,260,2012-03-04 01:53:00
7:53 PM,36.0,21.9,57,30.06,10.0,SE,9.2,-,N/A,,Clear,140,2012-03-04 02:53:00
8:53 PM,37.0,21.9,54,30.01,10.0,SSW,3.5,-,N/A,,Clear,210,2012-03-04 03:53:00
9:53 PM,37.0,21.9,54,30.02,10.0,West,4.6,-,N/A,,Clear,270,2012-03-04 04:53:00
10:53 PM,35.1,21.9,59,30.00,10.0,East,3.5,-,N/A,,Clear,100,2012-03-04 05:53:00
11:53 PM,34.0,21.9,61,30.00,10.0,SSW,9.2,-,N/A,,Clear,210,2012-03-04 06:53:00